星链-5454 (STARLINK-5454 )

导读

STARLINK-5454是美国太空探索技术公司SpaceX星链卫星互联网项目中的一颗卫星,于2022年12月17日发射升空,属于星链星座的组网卫星,旨在为全球提供低延迟、高速率的宽带互联网服务,运行在近地轨道,支撑星链网络的覆盖能力与服务稳定性。

Basic Information
目录编号:
54774
目录名称:
STARLINK-5454
国际标识:
2022-175S
轨道中心:
EARTH
卫星名称:
星链-5454
卫星全名:
星链-5454 (STARLINK-5454 )
卫星状态:
在轨 (已飞行1367 天)
发射日期:
2022-12-17 UTC
国别 :
美国 (US)
星等 :
--
This satellite is enrolled in the Space Conjunction Data Service (SCDS) and the current flight risk assessment level is: High Risk
Orbit Information
数据来源 国际轨道数据
星历时间: 2026-09-14T08:26:25+0800
18小时前
查看轨道信息
半长轴: 6840.865km
偏心率: 0.0001339
轨道倾角: 53.159°
近地点辐角 93.295°
升交点赤经 250.237°
平近点角 266.820°
近地点: 461.812km
远地点: 463.644km
周期: 93.848分钟
每日圈数: 15.343917
Detailed Information
固有亮度:
5
最大亮度:
2.5
卫星平台:
Starlink v1.5
覆盖范围:
全球
运营商:
太空探索技术公司
运营商所在国:
美国
制造商(研发单位):
太空探索技术公司
制造商所在国:
美国
使用方式:
暂无
Satellite Introduction
星链(Starlink)计划是由太空探索技术公司(SpaceX)提出的一个巨型低轨卫星互联网星座项目,计划在2019年至2024年间在太空搭建由约1.2万颗卫星组成的“星链”网络,其中1584颗将部署在地球上空550千米处的近地轨道,并从2020年开始工作。该卫星仍在工作。
2D Orbit Map
3D Orbit Map
Orbit Altitude Analysis Chart
Orbit Inclination Analysis Chart
Orbit Comprehensive Analysis Chart
View Comprehensive Chart
Conjunction Data List
Event ID Objects TCA Miss Dist (km) Collision Risk Probability Collision Risk Index (CRI) Action
CDM_260917-013705-477406-853621
2026-09-17T
01:37:40+0000
0.299 km
中距离
3.771001E-4 高风险 0.87
CDM_260917-061005-477406-411021
2026-09-17T
06:10:56+0000
0.662 km
远距离
3.075793E-5 中风险 0.65
CDM_260917-035005-477406-411021
2026-09-17T
03:50:15+0000
0.983 km
远距离
8.244727E-6 低风险 0.53
CDM_260917-021405-477406-855921
2026-09-17T
02:14:27+0000
2.156 km
极远距离
1.211018E-6 低风险 0.37
Miss Distance Evolution Trend with All Objects Subscribe to Flight Safety Assessment
Collision Probability Evolution Trend with All Objects Subscribe to Flight Safety Assessment